Location: Les Salelles
(44.4192°N, 4.1044°E)
Time: 11:03:59
(UTC+00:00)

Cosmos 1400 Rocket - Pass Details

Date: 20 January 2021
Orbit: 520 x 568 km, 81.2° (Epoch: 28 February)

Event Time Altitude Azimuth Distance (km) Brightness Sun altitude
Rises 17:03:48 0° 343° (NNW) 2,773 6.3 -5.2°
Reaches altitude 10° 17:06:04 10° 337° (NNW) 1,867 5.6 -5.6°
Maximum altitude 17:09:58 44° 265° (W) 786 4.3 -6.2°
Drops below altitude 10° 17:13:49 10° 193° (SSW) 1,830 6.0 -6.9°
Sets 17:16:02 0° 187° (S) 2,711 6.8 -7.2°
